Regional Weather Roundup
Issued by NWS

Home | Current Version | Previous Version | Graphics & Text | Print | Product List | Glossary Off
Versions: 1 2 3 4 5 6 7 8 9 10 11 12 13 14 15 16 17 18 19 20 21 22 23 24 25 26 27 28 29 30 31 32 33 34 35 36 37 38 39 40 41 42 43 44 45 46 47 48 49 50

000
ASUS43 KLOT 042200
RWRIL

ILLINOIS REGIONAL WEATHER ROUNDUP
NATIONAL WEATHER SERVICE CHICAGO/ROMEOVILLE IL
500 PM CDT MON MAY 04 2015

NOTE: "FAIR" INDICATES FEW OR NO CLOUDS BELOW 12,000 FEET WITH NO
SIGNIFICANT WEATHER AND/OR OBSTRUCTIONS TO VISIBILITY.

* THESE STATIONS ARE NOT UNDER NWS QUALITY CONTROL. THEY ALSO MAY NOT
  REPORT WEATHER SUCH AS PRECIPITATION OR FOG.

ILZ001-002-007-009-015-016-024-042300-
NORTHWEST ILLINOIS

CITY           SKY/WX    TMP DP  RH WIND       PRES   REMARKS
MOLINE         PTSUNNY   75  61  61 NE14      30.06F
STERLING*      CLOUDY    72  61  68 E7        30.10F
$$

ILZ003-004-008-010-011-017-018-042300-
NORTH CENTRAL ILLINOIS

CITY           SKY/WX    TMP DP  RH WIND       PRES   REMARKS
ROCKFORD       MOSUNNY   75  57  53 NE9       30.12S
FREEPORT*      MOSUNNY   72  58  60 NE5       30.13F
$$

ILZ005-006-012>014-019>023-042300-
NORTHEAST ILLINOIS

CITY           SKY/WX    TMP DP  RH WIND       PRES   REMARKS
CHICAGO-OHARE  CLOUDY    67  54  63 NE12      30.13R
CHICAGO-MIDWAY PTSUNNY   67  56  67 E14       30.13S
AURORA         CLOUDY    73  56  54 CALM      30.12F
WAUKEGAN       PTSUNNY   61  45  55 N13       30.15R
DUPAGE AIRPORT PTSUNNY   72  58  61 S5        30.11S
WHEELING       PTSUNNY   62  51  67 E12       30.16R
NORTHERLY ISL    N/A     56  52  86 N6          N/A
$$

LMZ740>746-042300-
SOUTHERN LAKE MICHIGAN

STATION/POSITION SKY/WX   TEMP    WIND        PRES    VSBY  WAVE
                          AIR SEA DIR/SP/G                  HT/PER
                          (F)     (DEG/KT/KT) (MB)    (MI)  (FT/S)
HARRISON CRIB              55      50/ 17/ 18   N/A
BURNHAM HARBOR             57     360/  3/  8   N/A
CALUMET HARBOR             55      30/  6/ 10   N/A
BURNS HARBOR               56      80/ 13/ 14 1021.0S
MICHIGAN CITY              54      30/ 12/ 13   N/A
MICHIGAN CITY 6N           52 50   90/  6/  8   N/A           1
ST. JOSEPH                 50 49   70/  4/  6   N/A           1
$$

ILZ025>027-034>036-040-047-049-050-058-095>099-042300-
WEST-CENTRAL ILLINOIS

CITY           SKY/WX    TMP DP  RH WIND       PRES   REMARKS
QUINCY         CLOUDY    80  59  48 SW14      30.04F HX  81
$$

ILZ028>032-037-038-041>044-048-051>054-059>061-042300-
CENTRAL ILLINOIS

CITY           SKY/WX    TMP DP  RH WIND       PRES   REMARKS
DECATUR        CLOUDY    79  57  46 SW10      30.08F HX  80
PEORIA         PTSUNNY   77  63  61 E6        30.07F
LINCOLN*       PTSUNNY   81  57  43 CALM      30.05F HX  81
SPRINGFIELD    PTSUNNY   82  56  40 SW10      30.06F HX  82
TAYLORVILLE    NOT AVBL
$$

ILZ033-039-045-046-055>057-062-063-042300-
EAST-CENTRAL ILLINOIS

CITY           SKY/WX    TMP DP  RH WIND       PRES   REMARKS
CHAMPAIGN      CLOUDY    75  64  68 N13       30.10S
DANVILLE*      LGT RAIN  66  63  90 N7        30.09S
MATTOON        PTSUNNY   79  56  45 SW10G18   30.09F HX  80
$$

ILZ079-100>102-042300-
SOUTHWEST ILLINOIS

CITY           SKY/WX    TMP DP  RH WIND       PRES   REMARKS
BELLEVILLE     MOSUNNY   83  58  42 VRB6      30.06F HX  82
CAHOKIA*       PTSUNNY   85  56  37 S6G18     30.06S HX  84
$$

ILZ064>066-069>071-074>076-080>082-084>086-088>090-092>094-042300-
SOUTH-CENTRAL ILLINOIS

CITY           SKY/WX    TMP DP  RH WIND       PRES   REMARKS
CARBONDALE     SUNNY     82  53  36 S14G23    30.10F HX  81
MARION         PTSUNNY   82  57  42 S12G17    30.12S HX  82
MT. VERNON     MOSUNNY  N/A N/A N/A S14       30.11F
$$

ILZ067-068-072-073-078-083-087-091-042300-
SOUTHEAST ILLINOIS

CITY           SKY/WX    TMP DP  RH WIND       PRES   REMARKS
LAWRENCEVILLE  PTSUNNY   82  57  42 SW13      30.12S HX  82
HARRISBURG*    MOSUNNY   83  53  35 S14G22    30.13S HX  81
CARMI*         MOSUNNY   83  47  28 SW12G18   30.11F HX  81
$$

ABBREVIATIONS USED IN REMARKS
   TC - TEMPERATURE IN CELSIUS
  WCI - WIND CHILL INDEX
   HX - HEAT INDEX
  VSB - VISIBILITY
$$




USA.gov is the U.S. government's official web portal to all federal, state and local government web resources and services.